Willimantic, CT

12:34 PM EDT on October 14, 2019 (GMT -0400)
Windham

Weather History for KIJD - August, 2019

Change the Weather History Date:

Friday, August 9, 2019

  Actual Average Record
Temperature  
Mean Temperature 71 °F -  
Max Temperature 82 °F 82 °F 100 °F (2001)
Min Temperature 60 °F 59 °F 44 °F (1989)
Cooling Degree Days 6    
Growing Degree Days 21 (Base 50)    
Moisture  
Dew Point 60 °F    
Average Humidity 75    
Maximum Humidity 100    
Minimum Humidity 37    
Precipitation  
Precipitation 0.00 in - - ()
Sea Level Pressure  
Sea Level Pressure 29.73 in    
Wind  
Wind Speed 2 mph (WNW)    
Max Wind Speed 12 mph    
Max Gust Speed 22 mph    
Visibility 8 miles    
Events Fog    
Averages and records for this station are not official NWS values.
T = Trace of Precipitation, MM = Missing Value Source: NWS Daily Summary

Daily Weather History Graph

Daily Weather History Graph

Search for Another Location

Airport or City:

Astronomy

Aug. 09, 2019 Rise Set
Actual Time 5:50 AM EDT 7:57 PM EDT
Civil Twilight 5:20 AM EDT 8:27 PM EDT
Nautical Twilight 4:42 AM EDT 9:04 PM EDT
Astronomical Twilight 4:01 AM EDT 9:45 PM EDT
Moon 3:36 PM EDT (8/9) 12:45 AM EDT (8/9)
Length of Visible Light 15h 07m
Length of Day
14h 06m
Waxing Gibbous, 70% of the Moon is Illuminated
Aug 9
Waxing Gibbous
Aug 15
Full
Aug 23
Last Quarter
Aug 30
New
Sep 5
First Quarter

Hourly Weather History & Observations

Time (EDT) Temp. Heat Index Dew Point Humidity Pressure Visibility Wind Dir Wind Speed Gust Speed Precip Events Conditions
12:52 AM 64.9 °F - 62.1 °F 90% 29.69 in 10.0 mi Calm Calm - N/A   Clear
1:52 AM 64.9 °F - 61.0 °F 87% 29.70 in 10.0 mi Calm Calm - N/A   Clear
2:52 AM 63.0 °F - 61.0 °F 93% 29.71 in 10.0 mi Calm Calm - N/A   Clear
3:52 AM 62.1 °F - 60.1 °F 93% 29.70 in 10.0 mi Calm Calm - N/A   Clear
4:52 AM 62.1 °F - 61.0 °F 96% 29.71 in 10.0 mi Calm Calm - N/A   Clear
5:52 AM 61.0 °F - 59.0 °F 93% 29.72 in 10.0 mi Calm Calm - N/A   Partly Cloudy
6:40 AM 61.0 °F - 60.1 °F 97% 29.74 in 1.2 mi North - - N/A   Partly Cloudy
6:46 AM 60.8 °F - 60.8 °F 100% 29.74 in 0.2 mi Calm Calm - N/A Fog Fog
6:47 AM 61.0 °F - 60.1 °F 97% 29.73 in 0.2 mi Calm Calm - N/A Fog Fog
6:53 AM 61.0 °F - 61.0 °F 100% 29.73 in 0.8 mi Calm Calm - N/A   Mist
6:56 AM 62.1 °F - 61.0 °F 96% 29.74 in 2.0 mi Calm Calm - N/A   Scattered Clouds
7:03 AM 63.0 °F - 62.1 °F 97% 29.74 in 7.0 mi Calm Calm - N/A   Scattered Clouds
7:52 AM 66.9 °F - 63.0 °F 87% 29.75 in 10.0 mi Calm Calm - N/A   Clear
8:52 AM 73.0 °F - 62.1 °F 68% 29.75 in 10.0 mi Variable 4.6 mph 16.1 mph N/A   Clear
9:52 AM 75.0 °F - 60.1 °F 60% 29.75 in 10.0 mi WNW 9.2 mph - N/A   Clear
10:52 AM 78.1 °F - 59.0 °F 52% 29.75 in 10.0 mi NW 10.4 mph - N/A   Clear
11:52 AM 79.0 °F - 57.9 °F 48% 29.74 in 10.0 mi WNW 8.1 mph - N/A   Clear
12:52 PM 80.1 °F 80.2 °F 55.9 °F 43% 29.73 in 10.0 mi West 10.4 mph - N/A   Clear
1:52 PM 82.0 °F 81.4 °F 55.0 °F 39% 29.72 in 10.0 mi WNW 9.2 mph 19.6 mph N/A   Partly Cloudy
2:52 PM 82.0 °F 81.6 °F 55.9 °F 41% 29.71 in 10.0 mi NW 6.9 mph - N/A   Clear
3:52 PM 82.9 °F 81.9 °F 54.0 °F 37% 29.70 in 10.0 mi West 11.5 mph 21.9 mph N/A   Scattered Clouds
4:52 PM 82.0 °F 81.7 °F 57.0 °F 42% 29.70 in 10.0 mi North 11.5 mph - N/A   Scattered Clouds
5:52 PM 78.1 °F - 57.9 °F 50% 29.71 in 10.0 mi WNW 3.5 mph - N/A   Mostly Cloudy
6:52 PM 77.0 °F - 61.0 °F 58% 29.72 in 10.0 mi Calm Calm - N/A   Overcast
7:52 PM 73.9 °F - 64.0 °F 71% 29.73 in 10.0 mi West 3.5 mph - 0.00 in   Overcast
8:52 PM 71.1 °F - 63.0 °F 75% 29.75 in 10.0 mi SE 4.6 mph - 0.00 in   Mostly Cloudy
9:52 PM 66.9 °F - 64.0 °F 90% 29.77 in 10.0 mi Calm Calm - N/A   Clear
10:52 PM 64.9 °F - 62.1 °F 90% 29.78 in 10.0 mi North 3.5 mph - N/A   Clear
11:52 PM 63.0 °F - 61.0 °F 93% 29.78 in 10.0 mi Calm Calm - N/A   Clear